Regional Weather Roundup
Issued by NWS Green Bay, WI

Home | Current Version | Previous Version | Graphics & Text | Print | Product List | Glossary Off
Versions: 1 2 3 4 5 6 7 8 9 10 11 12 13 14 15 16 17 18 19 20 21 22 23 24 25 26 27 28 29 30 31 32 33 34 35 36 37 38 39 40 41 42 43 44 45 46 47 48 49 50

000
ASUS43 KGRB 220710
RWRGRB

NORTH-CENTRAL AND NORTHEAST WISCONSIN REGIONAL WEATHER ROUNDUP
NATIONAL WEATHER SERVICE GREEN BAY WI
200 AM CDT TUE JUL 22 2014

WIZ005-009-010>012-018-019-220800-
NORTH CENTRAL WISCONSIN

CITY           SKY/WX    TMP DP  RH WIND       PRES   REMARKS
IRONWOOD       CLOUDY    77  66  69 SW12G18   29.82F
MANITOWISH WTR PTCLDY    73  67  83 S9G17     29.89F
ARBOR VITAE    PTCLDY    74  68  80 S10       29.91F
EAGLE RIVER    PTCLDY    72  65  78 S7        29.93S
LAND O LAKES   CLEAR     73  67  80 S8        29.93S
RHINELANDER    MOCLDY    73  66  78 SW8       29.95S
PHILLIPS       CLOUDY    73  68  82 S10       29.88F
ANTIGO         CLEAR     70  67  91 S10G17    29.96F
TOMAHAWK       MOCLDY    72  66  83 CALM      29.93S
MERRILL        MOCLDY    74  68  83 S8        29.94R
$$

WIZ013-073-220800-
NORTHEAST WISCONSIN

CITY           SKY/WX    TMP DP  RH WIND       PRES   REMARKS
IRON MOUNTAIN  CLEAR     69  66  90 SE5       29.93F
MARINETTE      CLEAR     72  63  73 SW8       29.95S
OCONTO         CLEAR     71  66  85 S5        29.95F
$$

WIZ017-030-035>037-045-220800-
CENTRAL WISCONSIN

CITY           SKY/WX    TMP DP  RH WIND       PRES   REMARKS
MEDFORD        MOCLDY    73  67  82 S14       29.93F
WAUSAU         MOCLDY    74  68  81 S10       29.93F
MOSINEE        PTCLDY    72  68  88 S10       29.96F
MARSHFIELD     MOCLDY    73  68  84 S9        29.95F
WISC RAPIDS    PTCLDY    74  68  81 S9        29.96F
STEVENS POINT  PTCLDY    72  66  83 S9        29.96F
WAUPACA        PTCLDY    73  69  86 S7        29.96F
SHAWANO        PTCLDY    74  68  81 S5        29.95F
CLINTONVILLE   PTCLDY    72  68  88 S8        29.95F
$$

WIZ038-039-048-051-220800-
FOX VALLEY

CITY           SKY/WX    TMP DP  RH WIND       PRES   REMARKS
NWS GREEN BAY  CLEAR     71  65  81 S8        29.97F
APPLETON       CLEAR     73  66  78 S10       29.98F
OSHKOSH        MOCLDY    73  68  84 S13       29.98F
FOND DU LAC    PTCLDY    74  67  78 S12       30.00F
$$

WIZ022-050-052-220800-
EAST CENTRAL WISCONSIN

CITY           SKY/WX    TMP DP  RH WIND       PRES   REMARKS
STURGEON BAY   CLEAR     66  61  82 S8        29.98F
MANITOWOC      CLEAR     64  61  90 CALM      30.00F
SHEBOYGAN      CLEAR     68  64  87 S6        30.01F
$$

LMZ563-521-522-541>543-220800-
LAKESHORE

STATION/POSITION TIME  TEMP    WIND        PRES    VSBY  WAVE
                       AIR SEA DIR/SP/G                  HT/PER
                 (UTC) (F)     (DEG/KT/KT) (MB)    (MI)  (FT/S)
SHEBOYGAN LKSHOR 0700   68     190/  9/  9 1016.1F
KEWAUNEE LKSHORE 0700   57     170/  7/  8 1016.1F
NORTHPORT PIER   0700   67     150/  7/ 10 1014.9F
N MID LAKE BUOY  0700   62 56  190/ 12/ 14 1014.4F         2/ 5
CHAMBERS ISLAND  0700   72     170/  5/ 12 1014.2F
MENOMINEE LKSHOR 0700   71     180/  8/ 12 1015.1R
$$


USA.gov is the U.S. government's official web portal to all federal, state and local government web resources and services.